Location: Noordwijk
(52.2400°N, 4.4500°E)
Time: 21:38:17
(UTC+00:00)

CARTOSAT-1 - Pass Details

Date: 14 June 2023
Orbit: 610 x 613 km, 97.7° (Epoch: 22 September)

Event Time Altitude Azimuth Distance (km) Brightness Sun altitude
Rises 21:39:38 0° 220° (SW) 2,867 6.8 -9.8°
Reaches altitude 10° 21:43:16 10° 253° (WSW) 1,969 6.3 -10.1°
Maximum altitude 21:44:49 12° 275° (W) 1,859 6.5 -10.2°
Drops below altitude 10° 21:46:23 10° 296° (WNW) 1,974 7.0 -10.3°
Sets 21:50:03 0° 329° (NNW) 2,886 9.2 -10.6°
